User: anonymous   Login
Location: Cherry Springs State Park
(41.6616°N, 77.8240°W)
Time: 05:43:55
(UTC-04:00)
Language:

Cosmos 1437 - Orbit

View from above orbital plane
View from above orbital plane
View from above satellite
View from above satellite

Ground track
Ground track

The orbit data is extracted from the following two-line orbital elements,

1 13770U 83003A   17114.83569048 +.00011132 +00000-0 +19110-3 0  9992
2 13770 081.1602 213.9850 0007616 091.3827 268.8293 15.50983817877979
Epoch (UTC): 24 April 2017 20:03:23
Eccentricity: 0.0007616
inclination: 81.1602°
perigee height: 408 km
apogee height: 419 km
right ascension of ascending node: 213.9850°
argument of perigee: 91.3827°
revolutions per day: 15.50983817
mean anomaly at epoch: 268.8293°
orbit number at epoch: 87797

The dashed part of the orbit path shows where the satellite is in the earth's shadow,  

DLR